Weather History for KLOZ - October, 2012

Change the Weather History Date:

Monday, October 8, 2012

  Actual Average Record
Temperature  
Mean Temperature 45 °F 60 °F  
Max Temperature 51 °F 72 °F 90 °F (2007)
Min Temperature 38 °F 48 °F 30 °F (1991)
Degree Days  
Heating Degree Days 20 6  
Month to date heating degree days 55 42  
Since 1 July heating degree days 118 89  
Cooling Degree Days 0 1  
Month to date cooling degree days 3 10  
Year to date cooling degree days 1225 1177  
Moisture  
Dew Point 41 °F    
Average Humidity 86    
Maximum Humidity 100    
Minimum Humidity 71    
Precipitation  
Precipitation 0.25 in 0.10 in 1.11 in (1977)
Month to date precipitation 1.60 0.77  
Year to date precipitation 38.02 36.82  
Sea Level Pressure  
Sea Level Pressure 30.19 in    
Wind  
Wind Speed 3 mph (NE)    
Max Wind Speed 8 mph    
Max Gust Speed 10 mph    
Visibility 9 miles    
Events Rain    
T = Trace of Precipitation, MM = Missing Value Source: NWS Daily Summary

Daily Weather History Graph

Daily Weather History Graph

Search for Another Location

Airport or City:

Trip Planner

Search our weather history database for the weather conditions in past years. The results will help you decide how hot, cold, wet, or windy it might be!

Date:

Astronomy

Oct. 08, 2012 Rise Set
Actual Time 7:38 AM EDT 7:08 PM EDT
Civil Twilight 7:12 AM EDT 7:34 PM EDT
Nautical Twilight 6:42 AM EDT 8:04 PM EDT
Astronomical Twilight 6:11 AM EDT 8:34 PM EDT
Moon 12:26 AM EDT (10/8) 2:49 PM EDT (10/8)
Length of Visible Light 12h 22m
Length of Day
11h 30m
Waning Gibbous, 46% of the Moon is Illuminated
Oct 8
Waning Gibbous
Oct 15
New
Oct 21
First Quarter
Oct 29
Full
Nov 6
Last Quarter

Hourly Weather History & Observations

Time (EDT) Temp. Windchill Dew Point Humidity Pressure Visibility Wind Dir Wind Speed Gust Speed Precip Events Conditions
12:53 AM 43.0 °F - 37.9 °F 82% 30.16 in 10.0 mi Calm Calm - N/A   Clear
1:53 AM 43.0 °F 41.3 °F 37.9 °F 82% 30.17 in 10.0 mi North 3.5 mph - N/A   Clear
2:53 AM 44.1 °F 41.5 °F 37.9 °F 79% 30.17 in 10.0 mi North 4.6 mph - N/A   Partly Cloudy
3:53 AM 44.1 °F 42.5 °F 39.0 °F 82% 30.17 in 10.0 mi NNE 3.5 mph - N/A   Partly Cloudy
4:53 AM 44.1 °F 42.5 °F 39.0 °F 82% 30.17 in 10.0 mi NNE 3.5 mph - N/A   Mostly Cloudy
5:53 AM 44.1 °F - 39.0 °F 82% 30.18 in 10.0 mi Calm Calm - N/A   Overcast
6:53 AM 44.1 °F - 39.9 °F 85% 30.17 in 10.0 mi Calm Calm - 0.00 in   Overcast
7:53 AM 44.1 °F 41.5 °F 39.9 °F 85% 30.19 in 10.0 mi North 4.6 mph - 0.00 in Rain Light Rain
8:53 AM 43.0 °F - 41.0 °F 93% 30.23 in 5.0 mi Calm Calm - 0.06 in Rain Light Rain
9:20 AM 42.8 °F 41.1 °F 41.0 °F 93% 30.22 in 5.0 mi NNE 3.5 mph - 0.04 in Rain Light Rain
9:49 AM 42.8 °F 41.1 °F 41.0 °F 93% 30.24 in 4.0 mi North 3.5 mph - 0.10 in Rain Rain
9:53 AM 43.0 °F 41.3 °F 42.1 °F 97% 30.25 in 3.0 mi North 3.5 mph - 0.11 in Rain Rain
9:57 AM 42.8 °F 41.1 °F 42.8 °F 100% 30.23 in 2.5 mi NNE 3.5 mph - 0.02 in Rain Rain
10:03 AM 42.8 °F 41.1 °F 42.8 °F 100% 30.23 in 3.0 mi NE 3.5 mph - 0.03 in Rain Rain
10:41 AM 42.8 °F 40.1 °F 42.8 °F 100% 30.24 in 4.0 mi North 4.6 mph - 0.07 in Rain Light Rain
10:53 AM 44.1 °F 40.8 °F 43.0 °F 96% 30.24 in 9.0 mi NNE 5.8 mph - 0.08 in Rain Light Rain
11:53 AM 44.1 °F 42.5 °F 42.1 °F 93% 30.24 in 10.0 mi Variable 3.5 mph - 0.00 in Rain Light Rain
12:53 PM 45.0 °F 42.6 °F 42.1 °F 90% 30.24 in 10.0 mi Variable 4.6 mph - 0.00 in   Overcast
1:18 PM 46.4 °F 45.2 °F 42.8 °F 87% 30.22 in 10.0 mi ESE 3.5 mph - N/A   Overcast
1:53 PM 46.9 °F - 43.0 °F 86% 30.21 in 10.0 mi East 5.8 mph - N/A   Overcast
2:21 PM 48.2 °F - 42.8 °F 82% 30.19 in 10.0 mi ESE 4.6 mph - N/A   Overcast
2:28 PM 48.2 °F - 42.8 °F 82% 30.18 in 10.0 mi Variable 4.6 mph - N/A   Overcast
2:53 PM 50.0 °F - 42.1 °F 74% 30.19 in 10.0 mi East 5.8 mph - N/A   Overcast
3:53 PM 50.0 °F - 41.0 °F 71% 30.18 in 10.0 mi Calm Calm - N/A   Overcast
4:22 PM 51.8 °F - 41.0 °F 67% 30.17 in 10.0 mi NNE 5.8 mph - N/A   Overcast
4:53 PM 50.0 °F - 41.0 °F 71% 30.17 in 10.0 mi NE 3.5 mph - N/A   Overcast
5:05 PM 48.2 °F - 41.0 °F 76% 30.17 in 10.0 mi Calm Calm - N/A   Overcast
5:19 PM 48.2 °F - 41.0 °F 76% 30.17 in 10.0 mi East 4.6 mph - N/A   Overcast
5:43 PM 48.2 °F - 42.8 °F 82% 30.16 in 10.0 mi NE 4.6 mph - N/A   Overcast
5:53 PM 48.9 °F - 42.1 °F 77% 30.17 in 10.0 mi ENE 4.6 mph - N/A   Overcast
6:03 PM 48.2 °F - 41.0 °F 76% 30.16 in 10.0 mi ENE 5.8 mph - N/A   Overcast
6:53 PM 46.9 °F - 41.0 °F 80% 30.17 in 10.0 mi Calm Calm - N/A   Scattered Clouds
7:53 PM 46.0 °F 44.8 °F 41.0 °F 83% 30.17 in 10.0 mi East 3.5 mph - N/A   Partly Cloudy
8:53 PM 44.1 °F 42.5 °F 41.0 °F 89% 30.18 in 10.0 mi NE 3.5 mph - N/A   Clear
10:53 PM 41.0 °F - 39.0 °F 93% 30.19 in 10.0 mi Calm Calm - N/A   Clear
11:53 PM 39.9 °F - 37.9 °F 93% 30.19 in 10.0 mi Calm Calm - N/A   Clear